Time,TemperatureF,DewpointF,PressureIn,WindDirection,WindDirectionDegrees,WindSpeedMPH,WindSpeedGustMPH,Humidity,HourlyPrecipIn,Conditions,Clouds,dailyrainin,SoftwareType,DateUTC
2013-03-04 00:00:00,30.9,17.9,29.96,NNE,28,4.0,11.0,58,0.00,,---,0.00,VWS V14.01,2013-03-04 05:00:00,
2013-03-04 00:05:00,31.2,18.2,29.96,NNW,342,0.0,11.0,58,0.00,,---,0.00,VWS V14.01,2013-03-04 05:05:00,
2013-03-04 00:11:00,31.2,18.2,29.96,NNE,12,4.0,11.0,58,0.00,,---,0.00,VWS V14.01,2013-03-04 05:11:00,
2013-03-04 00:16:00,31.3,17.9,29.96,NNW,330,1.0,11.0,57,0.00,,---,0.00,VWS V14.01,2013-03-04 05:16:00,
2013-03-04 00:21:00,31.4,17.9,29.96,NNW,345,4.0,11.0,57,0.00,,---,0.00,VWS V14.01,2013-03-04 05:21:00,
2013-03-04 00:26:00,31.5,17.6,29.96,NNW,329,4.0,7.0,56,0.00,,---,0.00,VWS V14.01,2013-03-04 05:26:00,
2013-03-04 00:31:00,31.6,17.7,29.96,NW,323,4.0,8.0,56,0.00,,---,0.00,VWS V14.01,2013-03-04 05:31:00,
2013-03-04 00:36:00,31.6,17.7,29.96,NNE,23,1.0,11.0,56,0.00,,---,0.00,VWS V14.01,2013-03-04 05:36:00,
2013-03-04 00:41:00,31.5,18.0,29.97,NNW,331,2.0,11.0,57,0.00,,---,0.00,VWS V14.01,2013-03-04 05:41:00,
2013-03-04 00:46:00,31.4,17.9,29.97,North,351,4.0,11.0,57,0.00,,---,0.00,VWS V14.01,2013-03-04 05:46:00,
2013-03-04 00:51:00,31.4,17.5,29.96,NE,42,1.0,11.0,56,0.00,,---,0.00,VWS V14.01,2013-03-04 05:51:00,
2013-03-04 00:56:00,31.5,17.6,29.97,NNW,338,1.0,4.0,56,0.00,,---,0.00,VWS V14.01,2013-03-04 05:56:00,
2013-03-04 01:01:00,31.4,17.5,29.96,West,260,5.0,6.0,56,0.00,,---,0.00,VWS V14.01,2013-03-04 06:01:00,
2013-03-04 01:06:00,31.3,17.4,29.97,NNW,345,4.0,6.0,56,0.00,,---,0.00,VWS V14.01,2013-03-04 06:06:00,
2013-03-04 01:11:00,31.2,16.9,29.97,NNW,336,2.0,6.0,55,0.00,,---,0.00,VWS V14.01,2013-03-04 06:11:00,
2013-03-04 01:16:00,31.0,17.2,29.97,NW,318,2.0,6.0,56,0.00,,---,0.00,VWS V14.01,2013-03-04 06:16:00,
2013-03-04 01:21:00,30.8,17.0,29.97,NNE,24,0.0,6.0,56,0.00,,---,0.00,VWS V14.01,2013-03-04 06:21:00,
2013-03-04 01:26:00,30.6,16.8,29.97,ENE,57,2.0,5.0,56,0.00,,---,0.00,VWS V14.01,2013-03-04 06:26:00,
2013-03-04 01:31:00,30.4,16.6,29.98,ENE,67,0.0,5.0,56,0.00,,---,0.00,VWS V14.01,2013-03-04 06:31:00,
2013-03-04 01:36:00,30.2,16.8,29.98,East,80,1.0,5.0,57,0.00,,---,0.00,VWS V14.01,2013-03-04 06:36:00,
2013-03-04 01:41:00,29.8,17.2,29.98,NE,47,2.0,5.0,59,0.00,,---,0.00,VWS V14.01,2013-03-04 06:41:00,
2013-03-04 01:46:00,29.6,17.0,29.98,North,5,1.0,6.0,59,0.00,,---,0.00,VWS V14.01,2013-03-04 06:46:00,
2013-03-04 01:51:00,29.5,17.3,29.98,NNE,22,2.0,6.0,60,0.00,,---,0.00,VWS V14.01,2013-03-04 06:51:00,
2013-03-04 01:56:00,29.3,17.1,29.98,ENE,78,1.0,3.0,60,0.00,,---,0.00,VWS V14.01,2013-03-04 06:56:00,
2013-03-04 02:01:00,29.1,17.0,29.98,NE,43,1.0,3.0,60,0.00,,---,0.00,VWS V14.01,2013-03-04 07:01:00,
2013-03-04 02:06:00,29.0,16.9,29.98,NNE,21,1.0,5.0,60,0.00,,---,0.00,VWS V14.01,2013-03-04 07:06:00,
2013-03-04 02:11:00,28.8,16.7,29.98,NNE,30,1.0,5.0,60,0.00,,---,0.00,VWS V14.01,2013-03-04 07:11:00,
2013-03-04 02:17:00,28.6,16.5,29.98,NNE,22,1.0,5.0,60,0.00,,---,0.00,VWS V14.01,2013-03-04 07:17:00,
2013-03-04 02:21:00,28.4,16.3,29.98,ENE,68,2.0,5.0,60,0.00,,---,0.00,VWS V14.01,2013-03-04 07:21:00,
2013-03-04 02:26:00,28.4,16.3,29.98,NW,311,1.0,1.0,60,0.00,,---,0.00,VWS V14.01,2013-03-04 07:26:00,
2013-03-04 02:31:00,28.3,16.2,29.98,NNW,329,2.0,3.0,60,0.00,,---,0.00,VWS V14.01,2013-03-04 07:31:00,
2013-03-04 02:37:00,28.3,15.8,29.98,ENE,57,4.0,4.0,59,0.00,,---,0.00,VWS V14.01,2013-03-04 07:37:00,
2013-03-04 02:42:00,28.2,15.7,29.98,NE,34,0.0,4.0,59,0.00,,---,0.00,VWS V14.01,2013-03-04 07:42:00,
2013-03-04 02:47:00,28.1,16.0,29.98,NE,52,0.0,4.0,60,0.00,,---,0.00,VWS V14.01,2013-03-04 07:47:00,
2013-03-04 02:52:00,27.9,15.8,29.99,ENE,59,0.0,4.0,60,0.00,,---,0.00,VWS V14.01,2013-03-04 07:52:00,
2013-03-04 02:57:00,27.7,15.3,29.99,NNE,19,1.0,1.0,59,0.00,,---,0.00,VWS V14.01,2013-03-04 07:57:00,
2013-03-04 03:02:00,27.4,15.4,29.99,NE,51,0.0,1.0,60,0.00,,---,0.00,VWS V14.01,2013-03-04 08:02:00,
2013-03-04 03:07:00,27.3,15.3,29.99,NE,39,0.0,1.0,60,0.00,,---,0.00,VWS V14.01,2013-03-04 08:07:00,
2013-03-04 03:12:00,27.1,15.4,29.99,NE,55,0.0,1.0,61,0.00,,---,0.00,VWS V14.01,2013-03-04 08:12:00,
2013-03-04 03:17:00,26.9,15.6,29.99,NW,320,1.0,1.0,62,0.00,,---,0.00,VWS V14.01,2013-03-04 08:17:00,
2013-03-04 03:22:00,26.9,15.6,29.99,NE,46,0.0,1.0,62,0.00,,---,0.00,VWS V14.01,2013-03-04 08:22:00,
2013-03-04 03:27:00,26.8,15.2,29.99,NNW,339,1.0,2.0,61,0.00,,---,0.00,VWS V14.01,2013-03-04 08:27:00,
2013-03-04 03:32:00,26.8,15.9,30.00,WNW,300,0.0,2.0,63,0.00,,---,0.00,VWS V14.01,2013-03-04 08:32:00,
2013-03-04 03:37:00,26.6,15.7,30.00,North,5,0.0,2.0,63,0.00,,---,0.00,VWS V14.01,2013-03-04 08:37:00,
2013-03-04 03:42:00,26.5,15.6,30.00,North,355,0.0,2.0,63,0.00,,---,0.00,VWS V14.01,2013-03-04 08:42:00,
2013-03-04 03:47:00,26.4,15.5,30.00,NW,324,0.0,2.0,63,0.00,,---,0.00,VWS V14.01,2013-03-04 08:47:00,
2013-03-04 03:52:00,26.2,15.7,30.00,NNW,329,0.0,2.0,64,0.00,,---,0.00,VWS V14.01,2013-03-04 08:52:00,
2013-03-04 03:57:00,26.1,16.0,30.00,NNW,339,0.0,0.0,65,0.00,,---,0.00,VWS V14.01,2013-03-04 08:57:00,
2013-03-04 04:02:00,25.9,16.5,30.00,NNW,342,0.0,0.0,67,0.00,,---,0.00,VWS V14.01,2013-03-04 09:02:00,
2013-03-04 04:07:00,25.8,15.7,30.00,NNE,12,0.0,0.0,65,0.00,,---,0.00,VWS V14.01,2013-03-04 09:07:00,
2013-03-04 04:12:00,25.5,15.7,30.00,NNE,15,0.0,0.0,66,0.00,,---,0.00,VWS V14.01,2013-03-04 09:12:00,
2013-03-04 04:17:00,25.5,15.7,30.00,NNE,16,0.0,1.0,66,0.00,,---,0.00,VWS V14.01,2013-03-04 09:17:00,
2013-03-04 04:22:00,25.5,15.7,30.00,NW,304,0.0,1.0,66,0.00,,---,0.00,VWS V14.01,2013-03-04 09:22:00,
2013-03-04 04:27:00,25.6,16.2,30.01,NW,324,0.0,0.0,67,0.00,,---,0.00,VWS V14.01,2013-03-04 09:27:00,
2013-03-04 04:32:00,25.5,16.1,30.01,NNW,329,0.0,0.0,67,0.00,,---,0.00,VWS V14.01,2013-03-04 09:32:00,
2013-03-04 04:37:00,25.4,16.3,30.01,NE,46,0.0,2.0,68,0.00,,---,0.00,VWS V14.01,2013-03-04 09:37:00,
2013-03-04 04:42:00,25.3,16.2,30.01,WNW,286,0.0,2.0,68,0.00,,---,0.00,VWS V14.01,2013-03-04 09:42:00,
2013-03-04 04:47:00,25.2,16.1,30.01,West,264,0.0,2.0,68,0.00,,---,0.00,VWS V14.01,2013-03-04 09:47:00,
2013-03-04 04:52:00,25.1,16.4,30.02,West,264,0.0,2.0,69,0.00,,---,0.00,VWS V14.01,2013-03-04 09:52:00,
2013-03-04 04:57:00,25.0,15.9,30.02,West,264,0.0,0.0,68,0.00,,---,0.00,VWS V14.01,2013-03-04 09:57:00,
2013-03-04 05:02:00,25.0,16.3,30.02,SW,221,0.0,1.0,69,0.00,,---,0.00,VWS V14.01,2013-03-04 10:02:00,
2013-03-04 05:07:00,24.9,16.2,30.02,SW,234,0.0,1.0,69,0.00,,---,0.00,VWS V14.01,2013-03-04 10:07:00,
2013-03-04 05:12:00,24.8,15.8,30.02,NW,310,0.0,1.0,68,0.00,,---,0.00,VWS V14.01,2013-03-04 10:12:00,
2013-03-04 05:17:00,24.6,15.9,30.02,NW,314,0.0,1.0,69,0.00,,---,0.00,VWS V14.01,2013-03-04 10:17:00,
2013-03-04 05:22:00,24.4,15.7,30.03,ENE,65,0.0,1.0,69,0.00,,---,0.00,VWS V14.01,2013-03-04 10:22:00,
2013-03-04 05:27:00,24.3,16.3,30.03,ENE,61,0.0,0.0,71,0.00,,---,0.00,VWS V14.01,2013-03-04 10:27:00,
2013-03-04 05:32:00,24.1,16.1,30.03,ENE,59,0.0,0.0,71,0.00,,---,0.00,VWS V14.01,2013-03-04 10:32:00,
2013-03-04 05:37:00,23.9,16.2,30.03,East,96,0.0,0.0,72,0.00,,---,0.00,VWS V14.01,2013-03-04 10:37:00,
2013-03-04 05:42:00,23.7,16.0,30.03,East,96,0.0,0.0,72,0.00,,---,0.00,VWS V14.01,2013-03-04 10:42:00,
2013-03-04 05:47:00,23.5,16.1,30.03,East,86,0.0,0.0,73,0.00,,---,0.00,VWS V14.01,2013-03-04 10:47:00,
2013-03-04 05:52:00,23.5,16.1,30.04,NNE,23,1.0,1.0,73,0.00,,---,0.00,VWS V14.01,2013-03-04 10:52:00,
2013-03-04 05:57:00,23.5,16.1,30.04,NNE,21,0.0,0.0,73,0.00,,---,0.00,VWS V14.01,2013-03-04 10:57:00,
2013-03-04 06:02:00,23.5,16.1,30.04,NW,317,0.0,0.0,73,0.00,,---,0.00,VWS V14.01,2013-03-04 11:02:00,
2013-03-04 06:07:00,23.8,16.1,30.05,NW,326,0.0,2.0,72,0.00,,---,0.00,VWS V14.01,2013-03-04 11:07:00,
2013-03-04 06:12:00,24.1,16.4,30.05,NW,317,0.0,2.0,72,0.00,,---,0.00,VWS V14.01,2013-03-04 11:12:00,
2013-03-04 06:17:00,24.3,16.3,30.05,West,265,1.0,2.0,71,0.00,,---,0.00,VWS V14.01,2013-03-04 11:17:00,
2013-03-04 06:22:00,24.6,16.2,30.05,NW,310,0.0,2.0,70,0.00,,---,0.00,VWS V14.01,2013-03-04 11:22:00,
2013-03-04 06:27:00,24.5,16.1,30.06,NW,311,0.0,0.0,70,0.00,,---,0.00,VWS V14.01,2013-03-04 11:27:00,
2013-03-04 06:32:00,24.4,16.4,30.06,NNW,342,0.0,0.0,71,0.00,,---,0.00,VWS V14.01,2013-03-04 11:32:00,
2013-03-04 06:38:00,24.2,16.2,30.06,NNW,342,0.0,1.0,71,0.00,,---,0.00,VWS V14.01,2013-03-04 11:38:00,
2013-03-04 06:43:00,24.2,16.2,30.06,NNW,330,0.0,1.0,71,0.00,,---,0.00,VWS V14.01,2013-03-04 11:43:00,
2013-03-04 06:48:00,24.1,16.4,30.06,NNW,345,0.0,1.0,72,0.00,,---,0.00,VWS V14.01,2013-03-04 11:48:00,
2013-03-04 06:53:00,23.7,16.0,30.06,NNW,345,0.0,1.0,72,0.00,,---,0.00,VWS V14.01,2013-03-04 11:53:00,
2013-03-04 06:58:00,23.5,15.8,30.06,NW,317,0.0,0.0,72,0.00,,---,0.00,VWS V14.01,2013-03-04 11:58:00,
2013-03-04 07:03:00,23.2,16.5,30.06,NW,321,0.0,0.0,75,0.00,,---,0.00,VWS V14.01,2013-03-04 12:03:00,
2013-03-04 07:08:00,23.0,16.6,30.06,NW,320,0.0,0.0,76,0.00,,---,0.00,VWS V14.01,2013-03-04 12:08:00,
2013-03-04 07:13:00,22.9,16.2,30.06,WNW,288,1.0,1.0,75,0.00,,---,0.00,VWS V14.01,2013-03-04 12:13:00,
2013-03-04 07:18:00,23.3,17.2,30.06,NW,315,0.0,1.0,77,0.00,,---,0.00,VWS V14.01,2013-03-04 12:18:00,
2013-03-04 07:23:00,23.7,17.3,30.06,NNE,24,0.0,1.0,76,0.00,,---,0.00,VWS V14.01,2013-03-04 12:23:00,
2013-03-04 07:28:00,24.2,17.4,30.06,WNW,291,1.0,2.0,75,0.00,,---,0.00,VWS V14.01,2013-03-04 12:28:00,
2013-03-04 07:33:00,24.8,17.4,30.07,ESE,104,1.0,5.0,73,0.00,,---,0.00,VWS V14.01,2013-03-04 12:33:00,
2013-03-04 07:38:00,25.6,17.5,30.07,West,279,0.0,5.0,71,0.00,,---,0.00,VWS V14.01,2013-03-04 12:38:00,
2013-03-04 07:43:00,26.0,17.9,30.07,ESE,114,0.0,5.0,71,0.00,,---,0.00,VWS V14.01,2013-03-04 12:43:00,
2013-03-04 07:48:00,26.6,17.1,30.07,NNW,330,2.0,7.0,67,0.00,,---,0.00,VWS V14.01,2013-03-04 12:48:00,
2013-03-04 07:53:00,27.4,17.9,30.08,NNW,343,0.0,7.0,67,0.00,,---,0.00,VWS V14.01,2013-03-04 12:53:00,
2013-03-04 07:58:00,28.0,17.8,30.08,NW,312,1.0,6.0,65,0.00,,---,0.00,VWS V14.01,2013-03-04 12:58:00,
2013-03-04 08:03:00,28.6,17.2,30.09,NW,306,2.0,6.0,62,0.00,,---,0.00,VWS V14.01,2013-03-04 13:03:00,
2013-03-04 08:08:00,29.1,17.3,30.09,NE,40,2.0,7.0,61,0.00,,---,0.00,VWS V14.01,2013-03-04 13:08:00,
2013-03-04 08:13:00,29.5,17.0,30.09,NNE,20,6.0,8.0,59,0.00,,---,0.00,VWS V14.01,2013-03-04 13:13:00,
2013-03-04 08:18:00,29.8,17.2,30.09,NNW,344,1.0,8.0,59,0.00,,---,0.00,VWS V14.01,2013-03-04 13:18:00,
2013-03-04 08:23:00,30.2,18.0,30.09,WSW,258,0.0,8.0,60,0.00,,---,0.00,VWS V14.01,2013-03-04 13:23:00,
2013-03-04 08:28:00,30.6,17.6,30.09,NE,49,2.0,2.0,58,0.00,,---,0.00,VWS V14.01,2013-03-04 13:28:00,
2013-03-04 08:33:00,31.0,18.0,30.09,NW,310,4.0,5.0,58,0.00,,---,0.00,VWS V14.01,2013-03-04 13:33:00,
2013-03-04 08:38:00,31.3,17.4,30.09,NW,304,5.0,6.0,56,0.00,,---,0.00,VWS V14.01,2013-03-04 13:38:00,
2013-03-04 08:43:00,31.6,17.7,30.09,NNW,348,5.0,6.0,56,0.00,,---,0.00,VWS V14.01,2013-03-04 13:43:00,
2013-03-04 08:48:00,31.7,17.4,30.10,ENE,74,6.0,11.0,55,0.00,,---,0.00,VWS V14.01,2013-03-04 13:48:00,
2013-03-04 08:53:00,32.0,17.2,30.10,West,263,1.0,11.0,54,0.00,,---,0.00,VWS V14.01,2013-03-04 13:53:00,
2013-03-04 08:59:00,32.0,16.4,30.10,North,360,7.0,8.0,52,0.00,,---,0.00,VWS V14.01,2013-03-04 13:59:00,
2013-03-04 09:04:00,32.1,16.9,30.10,NNW,336,2.0,8.0,53,0.00,,---,0.00,VWS V14.01,2013-03-04 14:04:00,
2013-03-04 09:09:00,32.6,16.9,30.10,WNW,298,7.0,10.0,52,0.00,,---,0.00,VWS V14.01,2013-03-04 14:09:00,
2013-03-04 09:14:00,32.6,16.5,30.10,East,84,5.0,12.0,51,0.00,,---,0.00,VWS V14.01,2013-03-04 14:14:00,
2013-03-04 09:19:00,32.5,16.4,30.10,NNW,338,8.0,16.0,51,0.00,,---,0.00,VWS V14.01,2013-03-04 14:19:00,
2013-03-04 09:24:00,32.9,16.8,30.10,NW,307,18.0,18.0,51,0.00,,---,0.00,VWS V14.01,2013-03-04 14:24:00,
2013-03-04 09:29:00,33.3,15.7,30.10,NNW,327,8.0,15.0,48,0.00,,---,0.00,VWS V14.01,2013-03-04 14:29:00,
2013-03-04 09:34:00,33.3,15.7,30.10,NE,46,13.0,15.0,48,0.00,,---,0.00,VWS V14.01,2013-03-04 14:34:00,
2013-03-04 09:39:00,33.5,15.9,30.10,North,355,12.0,15.0,48,0.00,,---,0.00,VWS V14.01,2013-03-04 14:39:00,
2013-03-04 09:44:00,33.6,15.5,30.10,NW,319,6.0,15.0,47,0.00,,---,0.00,VWS V14.01,2013-03-04 14:44:00,
2013-03-04 09:49:00,34.0,15.9,30.10,NW,310,7.0,15.0,47,0.00,,---,0.00,VWS V14.01,2013-03-04 14:49:00,
2013-03-04 09:54:00,34.4,16.3,30.10,North,351,2.0,15.0,47,0.00,,---,0.00,VWS V14.01,2013-03-04 14:54:00,
2013-03-04 09:59:00,34.7,15.6,30.10,NNW,332,8.0,12.0,45,0.00,,---,0.00,VWS V14.01,2013-03-04 14:59:00,
2013-03-04 10:04:00,34.8,15.1,30.10,NW,311,5.0,12.0,44,0.00,,---,0.00,VWS V14.01,2013-03-04 15:04:00,
2013-03-04 10:09:00,35.1,15.4,30.10,NW,315,4.0,12.0,44,0.00,,---,0.00,VWS V14.01,2013-03-04 15:09:00,
2013-03-04 10:14:00,35.6,15.9,30.10,NNW,336,7.0,12.0,44,0.00,,---,0.00,VWS V14.01,2013-03-04 15:14:00,
2013-03-04 10:19:00,36.1,15.8,30.10,NE,46,9.0,12.0,43,0.00,,---,0.00,VWS V14.01,2013-03-04 15:19:00,
2013-03-04 10:24:00,36.0,15.1,30.10,East,85,6.0,12.0,42,0.00,,---,0.00,VWS V14.01,2013-03-04 15:24:00,
2013-03-04 10:29:00,36.2,15.9,30.10,NNE,12,8.0,10.0,43,0.00,,---,0.00,VWS V14.01,2013-03-04 15:29:00,
2013-03-04 10:34:00,36.4,15.0,30.10,NNW,346,8.0,12.0,41,0.00,,---,0.00,VWS V14.01,2013-03-04 15:34:00,
2013-03-04 10:39:00,36.4,15.0,30.10,NNE,15,6.0,12.0,41,0.00,,---,0.00,VWS V14.01,2013-03-04 15:39:00,
2013-03-04 10:44:00,36.3,14.9,30.10,ENE,61,4.0,15.0,41,0.00,,---,0.00,VWS V14.01,2013-03-04 15:44:00,
2013-03-04 10:49:00,36.5,14.5,30.10,WNW,298,4.0,15.0,40,0.00,,---,0.00,VWS V14.01,2013-03-04 15:49:00,
2013-03-04 10:54:00,37.2,15.7,30.10,NNW,334,6.0,15.0,41,0.00,,---,0.00,VWS V14.01,2013-03-04 15:54:00,
2013-03-04 10:59:00,37.5,15.4,30.09,NW,325,7.0,9.0,40,0.00,,---,0.00,VWS V14.01,2013-03-04 15:59:00,
2013-03-04 11:04:00,37.7,16.1,30.09,WNW,294,6.0,9.0,41,0.00,,---,0.00,VWS V14.01,2013-03-04 16:04:00,
2013-03-04 11:09:00,38.0,15.3,30.09,NNW,329,5.0,9.0,39,0.00,,---,0.00,VWS V14.01,2013-03-04 16:09:00,
2013-03-04 11:14:00,38.0,15.8,30.08,WSW,252,2.0,10.0,40,0.00,,---,0.00,VWS V14.01,2013-03-04 16:14:00,
2013-03-04 11:19:00,38.6,14.6,30.08,NNW,347,2.0,12.0,37,0.00,,---,0.00,VWS V14.01,2013-03-04 16:19:00,
2013-03-04 11:24:00,38.9,16.1,30.08,SE,138,1.0,12.0,39,0.00,,---,0.00,VWS V14.01,2013-03-04 16:24:00,
2013-03-04 11:29:00,39.1,15.6,30.08,NNW,343,7.0,8.0,38,0.00,,---,0.00,VWS V14.01,2013-03-04 16:29:00,
2013-03-04 11:34:00,39.4,15.3,30.08,NNE,24,1.0,8.0,37,0.00,,---,0.00,VWS V14.01,2013-03-04 16:34:00,
2013-03-04 11:39:00,39.5,15.4,30.08,East,81,4.0,10.0,37,0.00,,---,0.00,VWS V14.01,2013-03-04 16:39:00,
2013-03-04 11:44:00,40.0,14.6,30.08,NW,315,6.0,11.0,35,0.00,,---,0.00,VWS V14.01,2013-03-04 16:44:00,
2013-03-04 11:49:00,40.1,15.3,30.08,WNW,295,2.0,11.0,36,0.00,,---,0.00,VWS V14.01,2013-03-04 16:49:00,
2013-03-04 11:54:00,40.7,15.8,30.08,West,277,5.0,11.0,36,0.00,,---,0.00,VWS V14.01,2013-03-04 16:54:00,
2013-03-04 12:00:00,40.7,15.8,30.07,SSE,167,1.0,7.0,36,0.00,,---,0.00,VWS V14.01,2013-03-04 17:00:00,
2013-03-04 12:05:00,41.1,16.2,30.08,NNE,12,4.0,9.0,36,0.00,,---,0.00,VWS V14.01,2013-03-04 17:05:00,
2013-03-04 12:10:00,41.6,16.0,30.08,North,355,6.0,9.0,35,0.00,,---,0.00,VWS V14.01,2013-03-04 17:10:00,
2013-03-04 12:15:00,41.7,15.4,30.08,NW,312,5.0,9.0,34,0.00,,---,0.00,VWS V14.01,2013-03-04 17:15:00,
2013-03-04 12:20:00,41.1,16.2,30.07,NW,322,6.0,10.0,36,0.00,,---,0.00,VWS V14.01,2013-03-04 17:20:00,
2013-03-04 12:25:00,41.5,15.9,30.07,WNW,299,2.0,10.0,35,0.00,,---,0.00,VWS V14.01,2013-03-04 17:25:00,
2013-03-04 12:30:00,41.6,16.0,30.07,NE,53,5.0,10.0,35,0.00,,---,0.00,VWS V14.01,2013-03-04 17:30:00,
2013-03-04 12:35:00,41.7,15.4,30.06,NNE,24,2.0,10.0,34,0.00,,---,0.00,VWS V14.01,2013-03-04 17:35:00,
2013-03-04 12:40:00,42.2,16.5,30.06,NE,42,8.0,10.0,35,0.00,,---,0.00,VWS V14.01,2013-03-04 17:40:00,
2013-03-04 12:45:00,42.4,16.0,30.06,WNW,286,2.0,10.0,34,0.00,,---,0.00,VWS V14.01,2013-03-04 17:45:00,
2013-03-04 12:50:00,42.7,15.6,30.06,ENE,70,2.0,10.0,33,0.00,,---,0.00,VWS V14.01,2013-03-04 17:50:00,
2013-03-04 12:55:00,43.0,16.6,30.06,NE,36,7.0,10.0,34,0.00,,---,0.00,VWS V14.01,2013-03-04 17:55:00,
2013-03-04 13:00:00,43.9,17.4,30.05,ENE,67,10.0,10.0,34,0.00,,---,0.00,VWS V14.01,2013-03-04 18:00:00,
2013-03-04 13:05:00,43.7,16.5,30.05,NW,304,3.0,10.0,33,0.00,,---,0.00,VWS V14.01,2013-03-04 18:05:00,
2013-03-04 13:10:00,43.3,16.1,30.05,NE,53,1.0,10.0,33,0.00,,---,0.00,VWS V14.01,2013-03-04 18:10:00,
2013-03-04 13:15:00,43.2,15.4,30.05,WNW,284,4.0,10.0,32,0.00,,---,0.00,VWS V14.01,2013-03-04 18:15:00,
2013-03-04 13:20:00,43.5,15.6,30.05,ENE,74,1.0,13.0,32,0.00,,---,0.00,VWS V14.01,2013-03-04 18:20:00,
2013-03-04 13:25:00,44.1,16.1,30.05,West,267,5.0,13.0,32,0.00,,---,0.00,VWS V14.01,2013-03-04 18:25:00,
2013-03-04 13:29:00,44.8,15.3,30.04,NW,314,5.0,6.0,30,0.00,,---,0.00,VWS V14.01,2013-03-04 18:29:00,
2013-03-04 13:30:00,44.7,14.4,30.04,NNW,346,6.0,6.0,29,0.00,,---,0.00,VWS V14.01,2013-03-04 18:30:00,
2013-03-04 13:35:00,44.7,15.2,30.04,NW,311,5.0,10.0,30,0.00,,---,0.00,VWS V14.01,2013-03-04 18:35:00,
2013-03-04 13:40:00,45.3,15.7,30.04,NW,326,8.0,10.0,30,0.00,,---,0.00,VWS V14.01,2013-03-04 18:40:00,
2013-03-04 13:45:00,45.3,14.9,30.04,NW,310,2.0,11.0,29,0.00,,---,0.00,VWS V14.01,2013-03-04 18:45:00,
2013-03-04 13:50:00,45.2,14.9,30.04,WSW,240,0.0,11.0,29,0.00,,---,0.00,VWS V14.01,2013-03-04 18:50:00,
2013-03-04 13:55:00,45.4,15.0,30.04,WNW,294,3.0,11.0,29,0.00,,---,0.00,VWS V14.01,2013-03-04 18:55:00,
2013-03-04 14:00:00,45.7,14.5,30.04,NE,35,6.0,12.0,28,0.00,,---,0.00,VWS V14.01,2013-03-04 19:00:00,
2013-03-04 14:05:00,45.4,15.0,30.03,NE,36,7.0,12.0,29,0.00,,---,0.00,VWS V14.01,2013-03-04 19:05:00,
2013-03-04 14:10:00,46.0,15.5,30.03,WNW,292,3.0,12.0,29,0.00,,---,0.00,VWS V14.01,2013-03-04 19:10:00,
2013-03-04 14:15:00,46.7,15.3,30.03,NW,321,5.0,12.0,28,0.00,,---,0.00,VWS V14.01,2013-03-04 19:15:00,
2013-03-04 14:20:00,46.6,14.4,30.02,North,350,6.0,12.0,27,0.00,,---,0.00,VWS V14.01,2013-03-04 19:20:00,
2013-03-04 14:25:00,46.7,15.3,30.03,NE,51,5.0,12.0,28,0.00,,---,0.00,VWS V14.01,2013-03-04 19:25:00,
2013-03-04 14:30:00,47.1,14.9,30.02,WSW,253,1.0,7.0,27,0.00,,---,0.00,VWS V14.01,2013-03-04 19:30:00,
2013-03-04 14:35:00,47.2,14.1,30.02,NW,304,4.0,7.0,26,0.00,,---,0.00,VWS V14.01,2013-03-04 19:35:00,
2013-03-04 14:40:00,47.5,15.2,30.02,NNW,329,6.0,8.0,27,0.00,,---,0.00,VWS V14.01,2013-03-04 19:40:00,
2013-03-04 14:45:00,47.7,15.4,30.02,ENE,69,2.0,10.0,27,0.00,,---,0.00,VWS V14.01,2013-03-04 19:45:00,
2013-03-04 14:50:00,48.1,14.9,30.02,WNW,296,2.0,10.0,26,0.00,,---,0.00,VWS V14.01,2013-03-04 19:50:00,
2013-03-04 14:55:00,48.3,15.0,30.02,WNW,291,6.0,10.0,26,0.00,,---,0.00,VWS V14.01,2013-03-04 19:55:00,
2013-03-04 15:00:00,48.4,16.0,30.02,NNW,348,3.0,8.0,27,0.00,,---,0.00,VWS V14.01,2013-03-04 20:00:00,
2013-03-04 15:05:00,48.7,14.5,30.01,WNW,295,4.0,8.0,25,0.00,,---,0.00,VWS V14.01,2013-03-04 20:05:00,
2013-03-04 15:10:00,48.7,15.4,30.01,NNW,329,1.0,8.0,26,0.00,,---,0.00,VWS V14.01,2013-03-04 20:10:00,
2013-03-04 15:15:00,49.0,14.7,30.01,SSW,206,2.0,8.0,25,0.00,,---,0.00,VWS V14.01,2013-03-04 20:15:00,
2013-03-04 15:20:00,49.4,15.1,30.01,WSW,254,7.0,8.0,25,0.00,,---,0.00,VWS V14.01,2013-03-04 20:20:00,
2013-03-04 15:25:00,49.3,15.0,30.01,NW,317,3.0,8.0,25,0.00,,---,0.00,VWS V14.01,2013-03-04 20:25:00,
2013-03-04 15:30:00,49.1,14.8,30.01,NE,50,2.0,11.0,25,0.00,,---,0.00,VWS V14.01,2013-03-04 20:30:00,
2013-03-04 15:35:00,49.3,15.0,30.00,ENE,59,5.0,11.0,25,0.00,,---,0.00,VWS V14.01,2013-03-04 20:35:00,
2013-03-04 15:40:00,49.5,15.1,30.01,WNW,294,4.0,11.0,25,0.00,,---,0.00,VWS V14.01,2013-03-04 20:40:00,
2013-03-04 15:45:00,49.9,14.6,30.00,West,272,5.0,11.0,24,0.00,,---,0.00,VWS V14.01,2013-03-04 20:45:00,
2013-03-04 15:50:00,49.6,14.3,30.01,NW,306,4.0,11.0,24,0.00,,---,0.00,VWS V14.01,2013-03-04 20:50:00,
2013-03-04 15:55:00,49.3,15.0,30.01,NW,310,2.0,11.0,25,0.00,,---,0.00,VWS V14.01,2013-03-04 20:55:00,
2013-03-04 16:00:00,49.5,14.2,30.00,WNW,296,1.0,6.0,24,0.00,,---,0.00,VWS V14.01,2013-03-04 21:00:00,
2013-03-04 16:05:00,49.7,14.4,30.00,NNE,24,3.0,6.0,24,0.00,,---,0.00,VWS V14.01,2013-03-04 21:05:00,
2013-03-04 16:10:00,49.8,14.5,30.00,SSW,192,4.0,7.0,24,0.00,,---,0.00,VWS V14.01,2013-03-04 21:10:00,
2013-03-04 16:15:00,49.8,13.5,30.00,ENE,68,1.0,8.0,23,0.00,,---,0.00,VWS V14.01,2013-03-04 21:15:00,
2013-03-04 16:20:00,50.0,13.7,30.00,West,273,2.0,8.0,23,0.00,,---,0.00,VWS V14.01,2013-03-04 21:20:00,
2013-03-04 16:25:00,50.1,13.8,30.01,NE,42,5.0,7.0,23,0.00,,---,0.00,VWS V14.01,2013-03-04 21:25:00,
2013-03-04 16:30:00,50.0,13.7,30.01,NNE,22,5.0,8.0,23,0.00,,---,0.00,VWS V14.01,2013-03-04 21:30:00,
2013-03-04 16:35:00,50.0,14.6,30.01,ENE,71,4.0,8.0,24,0.00,,---,0.00,VWS V14.01,2013-03-04 21:35:00,
2013-03-04 16:41:00,50.0,14.6,30.01,WNW,292,4.0,10.0,24,0.00,,---,0.00,VWS V14.01,2013-03-04 21:41:00,
2013-03-04 16:46:00,50.3,15.8,30.01,NW,315,4.0,10.0,25,0.00,,---,0.00,VWS V14.01,2013-03-04 21:46:00,
2013-03-04 16:51:00,50.3,14.9,30.00,WNW,298,2.0,10.0,24,0.00,,---,0.00,VWS V14.01,2013-03-04 21:51:00,
2013-03-04 16:56:00,50.5,14.1,30.01,West,268,3.0,4.0,23,0.00,,---,0.00,VWS V14.01,2013-03-04 21:56:00,
2013-03-04 17:01:00,50.6,16.1,30.01,WNW,290,1.0,4.0,25,0.00,,---,0.00,VWS V14.01,2013-03-04 22:01:00,
2013-03-04 17:06:00,50.8,14.4,30.01,NW,305,4.0,4.0,23,0.00,,---,0.00,VWS V14.01,2013-03-04 22:06:00,
2013-03-04 17:11:00,50.4,15.0,30.01,SW,227,1.0,5.0,24,0.00,,---,0.00,VWS V14.01,2013-03-04 22:11:00,
2013-03-04 17:16:00,50.3,14.9,30.01,West,265,1.0,5.0,24,0.00,,---,0.00,VWS V14.01,2013-03-04 22:16:00,
2013-03-04 17:21:00,50.4,15.0,30.01,WNW,290,1.0,5.0,24,0.00,,---,0.00,VWS V14.01,2013-03-04 22:21:00,
2013-03-04 17:26:00,50.5,15.1,30.02,West,276,2.0,2.0,24,0.00,,---,0.00,VWS V14.01,2013-03-04 22:26:00,
2013-03-04 17:31:00,50.1,14.7,30.02,NW,307,1.0,5.0,24,0.00,,---,0.00,VWS V14.01,2013-03-04 22:31:00,
2013-03-04 17:36:00,49.9,14.6,30.02,WSW,241,0.0,5.0,24,0.00,,---,0.00,VWS V14.01,2013-03-04 22:36:00,
2013-03-04 17:41:00,49.9,15.5,30.02,NW,318,2.0,5.0,25,0.00,,---,0.00,VWS V14.01,2013-03-04 22:41:00,
2013-03-04 17:46:00,49.5,15.1,30.02,NNE,15,0.0,5.0,25,0.00,,---,0.00,VWS V14.01,2013-03-04 22:46:00,
2013-03-04 17:51:00,48.9,15.5,30.02,NNW,344,0.0,5.0,26,0.00,,---,0.00,VWS V14.01,2013-03-04 22:51:00,
2013-03-04 17:56:00,48.6,15.3,30.02,WNW,288,5.0,5.0,26,0.00,,---,0.00,VWS V14.01,2013-03-04 22:56:00,
2013-03-04 18:01:00,48.3,15.9,30.02,SW,217,0.0,5.0,27,0.00,,---,0.00,VWS V14.01,2013-03-04 23:01:00,
2013-03-04 18:06:00,47.7,15.4,30.02,SW,218,0.0,5.0,27,0.00,,---,0.00,VWS V14.01,2013-03-04 23:06:00,
2013-03-04 18:11:00,47.1,14.9,30.02,SW,218,0.0,5.0,27,0.00,,---,0.00,VWS V14.01,2013-03-04 23:11:00,
2013-03-04 18:16:00,46.4,15.9,30.02,SW,218,0.0,5.0,29,0.00,,---,0.00,VWS V14.01,2013-03-04 23:16:00,
2013-03-04 18:21:00,45.6,16.7,30.02,SW,218,0.0,5.0,31,0.00,,---,0.00,VWS V14.01,2013-03-04 23:21:00,
2013-03-04 18:26:00,44.7,16.7,30.02,SW,218,0.0,0.0,32,0.00,,---,0.00,VWS V14.01,2013-03-04 23:26:00,
2013-03-04 18:31:00,43.7,17.2,30.03,SW,218,0.0,0.0,34,0.00,,---,0.00,VWS V14.01,2013-03-04 23:31:00,
2013-03-04 18:36:00,42.9,17.1,30.03,SW,218,0.0,0.0,35,0.00,,---,0.00,VWS V14.01,2013-03-04 23:36:00,
2013-03-04 18:41:00,42.2,18.4,30.03,SW,218,0.0,0.0,38,0.00,,---,0.00,VWS V14.01,2013-03-04 23:41:00,
2013-03-04 18:46:00,41.6,19.1,30.03,SW,218,0.0,0.0,40,0.00,,---,0.00,VWS V14.01,2013-03-04 23:46:00,
2013-03-04 18:51:00,41.0,19.1,30.03,SW,218,0.0,0.0,41,0.00,,---,0.00,VWS V14.01,2013-03-04 23:51:00,
2013-03-04 18:56:00,40.4,19.7,30.03,SW,218,0.0,0.0,43,0.00,,---,0.00,VWS V14.01,2013-03-04 23:56:00,
2013-03-04 19:01:00,39.7,19.6,30.03,SW,218,0.0,0.0,44,0.00,,---,0.00,VWS V14.01,2013-03-05 00:01:00,
2013-03-04 19:06:00,39.2,19.1,30.03,SW,218,0.0,0.0,44,0.00,,---,0.00,VWS V14.01,2013-03-05 00:06:00,
2013-03-04 19:11:00,38.7,19.2,30.03,SW,218,0.0,0.0,45,0.00,,---,0.00,VWS V14.01,2013-03-05 00:11:00,
2013-03-04 19:16:00,38.2,19.8,30.03,SW,218,0.0,0.0,47,0.00,,---,0.00,VWS V14.01,2013-03-05 00:16:00,
2013-03-04 19:21:00,37.6,19.2,30.03,SW,218,0.0,0.0,47,0.00,,---,0.00,VWS V14.01,2013-03-05 00:21:00,
2013-03-04 19:26:00,37.3,19.9,30.03,SW,219,0.0,0.0,49,0.00,,---,0.00,VWS V14.01,2013-03-05 00:26:00,
2013-03-04 19:31:00,37.0,19.6,30.04,SW,219,0.0,0.0,49,0.00,,---,0.00,VWS V14.01,2013-03-05 00:31:00,
2013-03-04 19:36:00,36.8,18.5,30.04,SW,219,0.0,0.0,47,0.00,,---,0.00,VWS V14.01,2013-03-05 00:36:00,
2013-03-04 19:41:00,36.7,18.4,30.04,NW,306,0.0,0.0,47,0.00,,---,0.00,VWS V14.01,2013-03-05 00:41:00,
2013-03-04 19:46:00,36.7,18.9,30.04,NW,305,0.0,0.0,48,0.00,,---,0.00,VWS V14.01,2013-03-05 00:46:00,
2013-03-04 19:51:00,36.5,18.7,30.04,NW,305,0.0,0.0,48,0.00,,---,0.00,VWS V14.01,2013-03-05 00:51:00,
2013-03-04 19:56:00,36.4,18.6,30.04,NW,306,0.0,0.0,48,0.00,,---,0.00,VWS V14.01,2013-03-05 00:56:00,
2013-03-04 20:01:00,36.3,19.0,30.05,NW,306,0.0,0.0,49,0.00,,---,0.00,VWS V14.01,2013-03-05 01:01:00,
2013-03-04 20:06:00,36.1,20.2,30.05,NW,305,0.0,0.0,52,0.00,,---,0.00,VWS V14.01,2013-03-05 01:06:00,
2013-03-04 20:11:00,35.9,19.5,30.05,NW,306,0.0,0.0,51,0.00,,---,0.00,VWS V14.01,2013-03-05 01:11:00,
2013-03-04 20:16:00,35.7,19.8,30.05,NW,306,0.0,0.0,52,0.00,,---,0.00,VWS V14.01,2013-03-05 01:16:00,
2013-03-04 20:21:00,35.4,20.9,30.05,NW,306,0.0,0.0,55,0.00,,---,0.00,VWS V14.01,2013-03-05 01:21:00,
2013-03-04 20:26:00,35.2,20.7,30.05,NW,306,0.0,0.0,55,0.00,,---,0.00,VWS V14.01,2013-03-05 01:26:00,
2013-03-04 20:31:00,35.0,21.3,30.05,NW,306,0.0,0.0,57,0.00,,---,0.00,VWS V14.01,2013-03-05 01:31:00,
2013-03-04 20:36:00,34.8,21.5,30.05,NW,305,0.0,0.0,58,0.00,,---,0.00,VWS V14.01,2013-03-05 01:36:00,
2013-03-04 20:41:00,34.6,21.0,30.05,NW,305,0.0,0.0,57,0.00,,---,0.00,VWS V14.01,2013-03-05 01:41:00,
2013-03-04 20:47:00,34.5,20.9,30.05,NW,305,0.0,0.0,57,0.00,,---,0.00,VWS V14.01,2013-03-05 01:47:00,
2013-03-04 20:52:00,34.5,21.3,30.05,NW,318,0.0,0.0,58,0.00,,---,0.00,VWS V14.01,2013-03-05 01:52:00,
2013-03-04 20:57:00,34.5,20.9,30.05,NNW,327,0.0,0.0,57,0.00,,---,0.00,VWS V14.01,2013-03-05 01:57:00,
2013-03-04 21:01:00,34.7,20.6,30.05,NNW,329,0.0,0.0,56,0.00,,---,0.00,VWS V14.01,2013-03-05 02:01:00,
2013-03-04 21:07:00,34.8,20.3,30.05,WNW,300,0.0,1.0,55,0.00,,---,0.00,VWS V14.01,2013-03-05 02:07:00,
2013-03-04 21:12:00,34.7,19.3,30.05,WNW,300,0.0,1.0,53,0.00,,---,0.00,VWS V14.01,2013-03-05 02:12:00,
2013-03-04 21:17:00,34.5,20.0,30.05,WNW,300,0.0,1.0,55,0.00,,---,0.00,VWS V14.01,2013-03-05 02:17:00,
2013-03-04 21:22:00,34.3,20.7,30.04,WNW,300,0.0,1.0,57,0.00,,---,0.00,VWS V14.01,2013-03-05 02:22:00,
2013-03-04 21:27:00,34.1,20.1,30.05,WNW,300,1.0,1.0,56,0.00,,---,0.00,VWS V14.01,2013-03-05 02:27:00,
2013-03-04 21:32:00,34.1,20.1,30.05,WNW,300,0.0,1.0,56,0.00,,---,0.00,VWS V14.01,2013-03-05 02:32:00,
2013-03-04 21:37:00,34.0,20.4,30.05,WNW,300,0.0,1.0,57,0.00,,---,0.00,VWS V14.01,2013-03-05 02:37:00,
2013-03-04 21:42:00,34.1,20.5,30.05,WNW,300,0.0,1.0,57,0.00,,---,0.00,VWS V14.01,2013-03-05 02:42:00,
2013-03-04 21:47:00,34.2,21.0,30.05,WNW,298,0.0,1.0,58,0.00,,---,0.00,VWS V14.01,2013-03-05 02:47:00,
2013-03-04 21:52:00,34.5,20.9,30.05,WNW,283,0.0,1.0,57,0.00,,---,0.00,VWS V14.01,2013-03-05 02:52:00,
2013-03-04 21:57:00,34.5,20.9,30.06,WNW,282,0.0,0.0,57,0.00,,---,0.00,VWS V14.01,2013-03-05 02:57:00,
2013-03-04 22:02:00,34.4,19.9,30.05,WNW,292,0.0,0.0,55,0.00,,---,0.00,VWS V14.01,2013-03-05 03:02:00,
2013-03-04 22:07:00,34.7,19.8,30.06,West,275,0.0,0.0,54,0.00,,---,0.00,VWS V14.01,2013-03-05 03:07:00,
2013-03-04 22:12:00,34.8,20.3,30.06,West,279,0.0,0.0,55,0.00,,---,0.00,VWS V14.01,2013-03-05 03:12:00,
2013-03-04 22:17:00,34.6,20.1,30.06,West,279,0.0,0.0,55,0.00,,---,0.00,VWS V14.01,2013-03-05 03:17:00,
2013-03-04 22:22:00,34.5,20.0,30.06,West,279,0.0,0.0,55,0.00,,---,0.00,VWS V14.01,2013-03-05 03:22:00,
2013-03-04 22:27:00,34.5,20.4,30.06,West,279,0.0,0.0,56,0.00,,---,0.00,VWS V14.01,2013-03-05 03:27:00,
2013-03-04 22:32:00,34.5,20.4,30.06,West,279,0.0,0.0,56,0.00,,---,0.00,VWS V14.01,2013-03-05 03:32:00,
2013-03-04 22:37:00,34.5,20.4,30.06,West,279,0.0,0.0,56,0.00,,---,0.00,VWS V14.01,2013-03-05 03:37:00,
2013-03-04 22:42:00,34.4,20.8,30.06,West,279,0.0,0.0,57,0.00,,---,0.00,VWS V14.01,2013-03-05 03:42:00,
2013-03-04 22:47:00,34.4,21.2,30.06,West,279,0.0,0.0,58,0.00,,---,0.00,VWS V14.01,2013-03-05 03:47:00,
2013-03-04 22:52:00,34.5,22.1,30.06,West,279,0.0,0.0,60,0.00,,---,0.00,VWS V14.01,2013-03-05 03:52:00,
2013-03-04 22:57:00,34.5,22.1,30.06,West,279,0.0,0.0,60,0.00,,---,0.00,VWS V14.01,2013-03-05 03:57:00,
2013-03-04 23:02:00,34.5,22.1,30.05,West,279,0.0,0.0,60,0.00,,---,0.00,VWS V14.01,2013-03-05 04:02:00,
2013-03-04 23:07:00,34.5,21.7,30.05,West,279,0.0,0.0,59,0.00,,---,0.00,VWS V14.01,2013-03-05 04:07:00,
2013-03-04 23:12:00,34.6,22.2,30.05,West,279,0.0,0.0,60,0.00,,---,0.00,VWS V14.01,2013-03-05 04:12:00,
2013-03-04 23:17:00,34.7,22.2,30.05,West,279,0.0,0.0,60,0.00,,---,0.00,VWS V14.01,2013-03-05 04:17:00,
2013-03-04 23:22:00,34.8,23.1,30.06,West,279,0.0,0.0,62,0.00,,---,0.00,VWS V14.01,2013-03-05 04:22:00,
2013-03-04 23:27:00,34.9,23.2,30.05,West,279,0.0,0.0,62,0.00,,---,0.00,VWS V14.01,2013-03-05 04:27:00,
2013-03-04 23:32:00,35.0,24.1,30.05,West,279,0.0,0.0,64,0.00,,---,0.00,VWS V14.01,2013-03-05 04:32:00,
2013-03-04 23:37:00,35.0,24.1,30.06,West,279,0.0,0.0,64,0.00,,---,0.00,VWS V14.01,2013-03-05 04:37:00,
2013-03-04 23:42:00,35.1,23.4,30.05,West,279,0.0,0.0,62,0.00,,---,0.00,VWS V14.01,2013-03-05 04:42:00,
2013-03-04 23:47:00,35.1,23.4,30.05,West,279,0.0,0.0,62,0.00,,---,0.00,VWS V14.01,2013-03-05 04:47:00,
2013-03-04 23:52:00,35.2,23.1,30.06,West,279,0.0,0.0,61,0.00,,---,0.00,VWS V14.01,2013-03-05 04:52:00,
2013-03-04 23:57:00,35.2,23.1,30.06,West,279,0.0,0.0,61,0.00,,---,0.00,VWS V14.01,2013-03-05 04:57:00,